Location: *
(51.5000°N, 0.1100°W)
Time: 20:25:38
(UTC+00:00)

SAR-Lupe-4 - Pass Details

Date: 25 May 2024
Orbit: 476 x 482 km, 98.1° (Epoch: 02 April)

Event Time Altitude Azimuth Distance (km) Brightness Sun altitude
Rises 02:49:38 0° 16° (NNE) 2,555 8.6 -8.3°
Reaches altitude 10° 02:51:43 10° 19° (NNE) 1,670 7.6 -8.1°
Maximum altitude 02:55:17 67° 103° (ESE) 528 3.9 -7.7°
Drops below altitude 10° 02:58:49 10° 187° (S) 1,655 5.8 -7.3°
Enters shadow 02:59:45 - 188° (S) 2,045 6.2 -7.2°
